Tracking 23114 objects as of 16-May-2021
HD Live streaming from Space Station
objects crossing your sky now

STARLINK-2418

Track STARLINK-2418 now!
10-day predictions
STARLINK-2418 is classified as:


NORAD ID: 48097
Int'l Code: 2021-027F
Perigee: 355.5 km
Apogee: 358.2 km
Inclination: 53.0 °
Period: 91.5 minutes
Semi major axis: 6727 km
RCS: Unknown
Launch date: April 7, 2021
Source: United States (US)
Launch site: AIR FORCE EASTERN TEST RANGE (AFETR)
aabbcc
Your satellite tracking list
Your tracking list is empty




NASA's NSSDC Master Catalog

Two Line Element Set (TLE):
1 48097U 21027F   21136.58334491 -.00000844  00000-0 -15787-5 0  9991
2 48097  53.0458 147.0510 0002014  27.1556 147.5703 15.73213045  1825
Source of the keplerian elements: AFSPC